Location: W�rzburg
(49.7529°N, 9.8822°E)
Time: 04:28:06
(UTC+01:00)

ISS - Pass Details

Date: 11 January 2018
Orbit: 402 x 407 km, 51.6° (Epoch: 18 January)

Event Time Altitude Azimuth Distance (km) Brightness Sun altitude
Exits shadow 07:13:57 12° 271° (W) 1,340 -1.8 -9.5°
Maximum altitude 07:16:27 28° 214° (SW) 804 -2.4 -9.1°
Drops below altitude 10° 07:19:18 10° 154° (SSE) 1,463 -0.2 -8.7°
Sets 07:21:33 0° 142° (SE) 2,320 1.3 -8.4°
